{"data":{"norad_id":59726,"intl_designator":"2024-088U","name":"STARLINK-31642","alt_names":[],"object_type":"PAYLOAD","status":"ACTIVE","operator":null,"country":"US","launch_date":"2024-05-10","launch_site_code":"AFWTR","launch_vehicle":null,"mission":null,"orbit_class":"UNKNOWN","rcs_meters":null,"size_class":null,"mass_kg":null,"dimensions":null,"purposes":["comms"],"wikipedia_slug":null,"has_3d_model":false,"image_url":null,"decayed_at":null,"tle_current":{"epoch":"2026-05-24T23:35:03.969312Z","epoch_age_seconds":80566,"freshness":"FRESH","line1":"1 59726U 24088U   26144.98268483  .00000774  00000+0  36718-4 0  9992","line2":"2 59726  53.1602 145.4893 0001167  92.7820 267.3315 15.31687475115365","mean_motion":15.31687475,"eccentricity":0.0001167,"inclination_deg":53.1602,"raan_deg":145.4893,"arg_perigee_deg":92.782,"mean_anomaly_deg":267.3315,"bstar":3.6718e-5,"rev_number":11536,"period_min":94.013956730958,"perigee_km":469.9780635508,"apogee_km":471.57660015585,"semimajor_km":6848.9143318533,"source":"CELESTRAK","updated_at":"2026-05-25T13:38:19.049746Z"}}}